| time (UTC) | temp C | wind direction | speed KPH | gust KPH | rain 1hr cm | rain 24hr cm | rain mn cm | humidity % | barometer mb |
| 20260510143039 | 18 | 51 | 6.4 | 19.3 | 0.00 | 0.00 | 0.00 | 69 | 1018.1 |
| 20260510142530 | 17 | 27 | 8.0 | 19.3 | 0.00 | 0.00 | 0.00 | 70 | 1018.1 |
| 20260510142028 | 17 | 58 | 9.7 | 17.7 | 0.00 | 0.00 | 0.00 | 70 | 1018.0 |
| 20260510141535 | 18 | 21 | 9.7 | 16.1 | 0.00 | 0.00 | 0.00 | 70 | 1017.9 |
| 20260510141030 | 18 | 3 | 4.8 | 17.7 | 0.00 | 0.00 | 0.00 | 70 | 1017.9 |
| 20260510140527 | 17 | 48 | 9.7 | 17.7 | 0.00 | 0.00 | 0.00 | 71 | 1017.7 |
| 20260510140036 | 17 | 41 | 6.4 | 19.3 | 0.00 | 0.00 | 0.00 | 71 | 1017.7 |
| 20260510135530 | 17 | 36 | 6.4 | 20.9 | 0.00 | 0.00 | 0.00 | 71 | 1017.7 |
| 20260510135028 | 17 | 47 | 8.0 | 20.9 | 0.00 | 0.00 | 0.00 | 71 | 1017.7 |
| 20260510134539 | 17 | 2 | 8.0 | 19.3 | 0.00 | 0.00 | 0.00 | 72 | 1017.6 |
| 20260510134030 | 17 | 23 | 4.8 | 16.1 | 0.00 | 0.00 | 0.00 | 72 | 1017.4 |
| 20260510133527 | 17 | 49 | 6.4 | 19.3 | 0.00 | 0.00 | 0.00 | 72 | 1017.3 |
| 20260510133037 | 17 | 41 | 6.4 | 20.9 | 0.00 | 0.00 | 0.00 | 72 | 1017.2 |
| 20260510132531 | 16 | 37 | 9.7 | 20.9 | 0.00 | 0.00 | 0.00 | 73 | 1017.2 |
| 20260510132029 | 17 | 53 | 6.4 | 17.7 | 0.00 | 0.00 | 0.00 | 72 | 1016.9 |
| 20260510131536 | 17 | 23 | 4.8 | 12.9 | 0.00 | 0.00 | 0.00 | 74 | 1017.0 |
| 20260510131027 | 16 | 33 | 3.2 | 16.1 | 0.00 | 0.00 | 0.00 | 76 | 1016.9 |
| 20260510130527 | 16 | 22 | 4.8 | 16.1 | 0.00 | 0.00 | 0.00 | 77 | 1016.8 |
| 20260510130036 | 16 | 30 | 6.4 | 16.1 | 0.00 | 0.00 | 0.00 | 77 | 1016.8 |
| 20260510125528 | 16 | 12 | 4.8 | 16.1 | 0.00 | 0.00 | 0.00 | 78 | 1016.8 |
| 20260510125027 | 16 | 29 | 6.4 | 16.1 | 0.00 | 0.00 | 0.00 | 79 | 1016.7 |
| 20260510124545 | 16 | 8 | 4.8 | 11.3 | 0.00 | 0.00 | 0.00 | 79 | 1016.5 |
| 20260510124032 | 15 | 49 | 3.2 | 9.7 | 0.00 | 0.00 | 0.00 | 80 | 1016.6 |
| 20260510123528 | 15 | 6 | 4.8 | 9.7 | 0.00 | 0.00 | 0.00 | 80 | 1016.4 |
| 20260510123042 | 15 | 0 | 3.2 | 9.7 | 0.00 | 0.00 | 0.00 | 81 | 1016.3 |
| 20260510122528 | 15 | 33 | 4.8 | 9.7 | 0.00 | 0.00 | 0.00 | 82 | 1016.2 |
| 20260510122029 | 15 | 27 | 1.6 | 9.7 | 0.00 | 0.00 | 0.00 | 83 | 1016.1 |
| 20260510121536 | 14 | 63 | 1.6 | 9.7 | 0.00 | 0.00 | 0.00 | 84 | 1016.1 |
| 20260510121028 | 14 | 30 | 3.2 | 9.7 | 0.00 | 0.00 | 0.00 | 85 | 1016.0 |
| 20260510120529 | 13 | 23 | 1.6 | 9.7 | 0.00 | 0.00 | 0.00 | 87 | 1015.9 |
| 20260510120036 | 13 | 0 | 0.0 | 9.7 | 0.00 | 0.00 | 0.00 | 88 | 1015.9 |
| 20260510115528 | 12 | 41 | 0.0 | 4.8 | 0.00 | 0.00 | 0.00 | 91 | 1015.8 |
| 20260510115028 | 12 | 34 | 0.0 | 3.2 | 0.00 | 0.00 | 0.00 | 91 | 1015.9 |
| 20260510114543 | 12 | 0 | 0.0 | 0.0 | 0.00 | 0.00 | 0.00 | 90 | 1015.7 |
| 20260510114028 | 12 | 0 | 0.0 | 0.0 | 0.00 | 0.00 | 0.00 | 90 | 1015.6 |
| 20260510113528 | 12 | 0 | 0.0 | 0.0 | 0.00 | 0.00 | 0.00 | 89 | 1015.4 |
| 20260510113034 | 12 | 0 | 0.0 | 0.0 | 0.00 | 0.00 | 0.00 | 89 | 1015.4 |
| 20260510112530 | 12 | 0 | 0.0 | 0.0 | 0.00 | 0.00 | 0.00 | 89 | 1015.4 |
| 20260510112027 | 12 | 0 | 0.0 | 0.0 | 0.00 | 0.00 | 0.00 | 89 | 1015.1 |
| 20260510111536 | 12 | 0 | 0.0 | 0.0 | 0.00 | 0.00 | 0.00 | 90 | 1015.0 |
| 20260510111025 | 12 | 0 | 0.0 | 0.0 | 0.00 | 0.00 | 0.00 | 89 | 1015.1 |
| 20260510110525 | 12 | 0 | 0.0 | 0.0 | 0.00 | 0.00 | 0.00 | 90 | 1015.0 |
| 20260510110038 | 12 | 0 | 0.0 | 0.0 | 0.00 | 0.00 | 0.00 | 91 | 1015.0 |
| 20260510105525 | 12 | 0 | 0.0 | 1.6 | 0.00 | 0.00 | 0.00 | 91 | 1015.0 |
| 20260510105028 | 12 | 0 | 0.0 | 1.6 | 0.00 | 0.00 | 0.00 | 91 | 1014.9 |
| 20260510104536 | 12 | 0 | 0.0 | 4.8 | 0.00 | 0.00 | 0.00 | 91 | 1014.7 |
| 20260510104026 | 12 | 0 | 0.0 | 4.8 | 0.00 | 0.00 | 0.00 | 92 | 1014.6 |
| 20260510103551 | 12 | 0 | 0.0 | 0.0 | 0.00 | 0.00 | 0.00 | 92 | 1014.8 |
| 20260510103036 | 12 | 0 | 0.0 | 3.2 | 0.00 | 0.00 | 0.00 | 92 | 1014.7 |
| 20260510102525 | 12 | 0 | 0.0 | 3.2 | 0.00 | 0.00 | 0.00 | 92 | 1014.8 |
| 20260510102031 | 12 | 0 | 0.0 | 0.0 | 0.00 | 0.00 | 0.00 | 91 | 1014.8 |
| 20260510101535 | 12 | 0 | 0.0 | 0.0 | 0.00 | 0.00 | 0.00 | 91 | 1014.7 |
| 20260510101027 | 12 | 0 | 0.0 | 0.0 | 0.00 | 0.00 | 0.00 | 91 | 1014.6 |
| 20260510100530 | 12 | 0 | 0.0 | 1.6 | 0.00 | 0.00 | 0.00 | 90 | 1014.5 |
| 20260510100056 | 12 | 0 | 0.0 | 1.6 | 0.00 | 0.00 | 0.00 | 90 | 1014.4 |
| 20260510095524 | 12 | 0 | 0.0 | 0.0 | 0.00 | 0.00 | 0.00 | 90 | 1014.4 |
| 20260510095029 | 12 | 0 | 0.0 | 3.2 | 0.00 | 0.00 | 0.00 | 90 | 1014.3 |
| 20260510094550 | 12 | 0 | 0.0 | 3.2 | 0.00 | 0.00 | 0.00 | 90 | 1014.3 |
| 20260510094028 | 12 | 70 | 0.0 | 1.6 | 0.00 | 0.00 | 0.00 | 89 | 1014.3 |
| 20260510093531 | 12 | 0 | 0.0 | 3.2 | 0.00 | 0.00 | 0.00 | 89 | 1014.4 |
| 20260510093037 | 12 | 0 | 0.0 | 3.2 | 0.00 | 0.00 | 0.00 | 89 | 1014.3 |
| 20260510092531 | 12 | 192 | 3.2 | 3.2 | 0.00 | 0.00 | 0.00 | 89 | 1014.2 |
| 20260510092025 | 13 | 0 | 0.0 | 1.6 | 0.00 | 0.00 | 0.00 | 88 | 1014.1 |
| 20260510091535 | 13 | 0 | 0.0 | 1.6 | 0.00 | 0.00 | 0.00 | 89 | 1014.1 |
| 20260510091027 | 13 | 0 | 0.0 | 3.2 | 0.00 | 0.00 | 0.00 | 89 | 1014.0 |
| 20260510090526 | 13 | 0 | 0.0 | 3.2 | 0.00 | 0.00 | 0.00 | 89 | 1014.0 |
| 20260510090045 | 13 | 21 | 0.0 | 3.2 | 0.00 | 0.00 | 0.00 | 88 | 1014.0 |
| 20260510085526 | 13 | 0 | 0.0 | 3.2 | 0.00 | 0.00 | 0.00 | 88 | 1014.0 |
| 20260510085027 | 13 | 0 | 0.0 | 3.2 | 0.00 | 0.00 | 0.00 | 88 | 1013.8 |
| 20260510084603 | 13 | 300 | 1.6 | 3.2 | 0.00 | 0.00 | 0.00 | 88 | 1013.9 |
| 20260510084028 | 13 | 125 | 0.0 | 1.6 | 0.00 | 0.00 | 0.00 | 88 | 1013.7 |
| 20260510083524 | 13 | 0 | 0.0 | 3.2 | 0.00 | 0.00 | 0.00 | 88 | 1013.6 |
| 20260510083037 | 13 | 0 | 0.0 | 3.2 | 0.00 | 0.00 | 0.00 | 88 | 1013.4 |
| 20260510082527 | 13 | 74 | 1.6 | 8.0 | 0.00 | 0.00 | 0.00 | 88 | 1013.3 |
| 20260510082025 | 13 | 0 | 0.0 | 8.0 | 0.00 | 0.00 | 0.00 | 88 | 1013.5 |
| 20260510081548 | 13 | 210 | 0.0 | 3.2 | 0.00 | 0.00 | 0.00 | 87 | 1013.6 |
| 20260510081027 | 13 | 0 | 0.0 | 3.2 | 0.00 | 0.00 | 0.00 | 87 | 1013.6 |
| 20260510080528 | 13 | 87 | 0.0 | 1.6 | 0.00 | 0.00 | 0.00 | 89 | 1013.7 |
| 20260510080035 | 13 | 0 | 0.0 | 1.6 | 0.00 | 0.00 | 0.00 | 88 | 1013.8 |
| 20260510075525 | 13 | 0 | 0.0 | 1.6 | 0.00 | 0.00 | 0.00 | 89 | 1013.7 |
| 20260510075025 | 12 | 0 | 0.0 | 1.6 | 0.00 | 0.00 | 0.00 | 89 | 1013.8 |
| 20260510074536 | 12 | 0 | 0.0 | 3.2 | 0.00 | 0.00 | 0.00 | 90 | 1013.9 |
| 20260510074025 | 12 | 0 | 0.0 | 3.2 | 0.00 | 0.00 | 0.00 | 90 | 1013.9 |
| 20260510073524 | 12 | 0 | 0.0 | 3.2 | 0.00 | 0.00 | 0.00 | 90 | 1013.8 |
| 20260510073044 | 12 | 0 | 0.0 | 4.8 | 0.00 | 0.00 | 0.00 | 90 | 1013.6 |
| 20260510072527 | 12 | 0 | 1.6 | 4.8 | 0.00 | 0.00 | 0.00 | 90 | 1013.6 |
| 20260510072031 | 12 | 215 | 0.0 | 0.0 | 0.00 | 0.00 | 0.00 | 90 | 1013.5 |
| 20260510071544 | 12 | 0 | 0.0 | 0.0 | 0.00 | 0.00 | 0.00 | 89 | 1013.6 |
| 20260510071027 | 12 | 0 | 0.0 | 0.0 | 0.00 | 0.00 | 0.00 | 89 | 1013.5 |
| 20260510070526 | 12 | 0 | 0.0 | 0.0 | 0.00 | 0.00 | 0.00 | 89 | 1013.4 |
| 20260510070045 | 12 | 0 | 0.0 | 0.0 | 0.00 | 0.00 | 0.00 | 88 | 1013.5 |
| 20260510065525 | 12 | 0 | 0.0 | 0.0 | 0.00 | 0.03 | 0.00 | 88 | 1013.6 |
| 20260510065025 | 12 | 0 | 0.0 | 0.0 | 0.00 | 0.03 | 0.00 | 88 | 1013.5 |
| 20260510064537 | 12 | 0 | 0.0 | 0.0 | 0.00 | 0.03 | 0.00 | 88 | 1013.4 |
| 20260510064026 | 13 | 0 | 0.0 | 0.0 | 0.00 | 0.03 | 0.00 | 87 | 1013.5 |
| 20260510063526 | 13 | 0 | 0.0 | 1.6 | 0.00 | 0.03 | 0.00 | 87 | 1013.4 |
| 20260510063047 | 13 | 0 | 0.0 | 8.0 | 0.00 | 0.03 | 0.00 | 87 | 1013.6 |
| 20260510062529 | 13 | 0 | 0.0 | 11.3 | 0.00 | 0.03 | 0.00 | 88 | 1013.6 |
| 20260510062026 | 13 | 349 | 4.8 | 11.3 | 0.00 | 0.03 | 0.00 | 89 | 1013.5 |
| 20260510061542 | 12 | 30 | 6.4 | 11.3 | 0.00 | 0.03 | 0.00 | 90 | 1013.5 |
| 20260510061031 | 12 | 212 | 0.0 | 3.2 | 0.00 | 0.03 | 0.00 | 90 | 1013.3 |
| 20260510060526 | 12 | 0 | 0.0 | 0.0 | 0.00 | 0.03 | 0.00 | 89 | 1013.2 |
| 20260510060039 | 12 | 0 | 0.0 | 0.0 | 0.00 | 0.03 | 0.00 | 88 | 1013.2 |
| 20260510055525 | 12 | 0 | 0.0 | 0.0 | 0.00 | 0.03 | 0.00 | 87 | 1013.1 |
| 20260510055028 | 12 | 0 | 0.0 | 0.0 | 0.00 | 0.03 | 0.00 | 87 | 1013.2 |
| 20260510054536 | 13 | 0 | 0.0 | 0.0 | 0.00 | 0.03 | 0.00 | 88 | 1013.2 |
| 20260510054025 | 13 | 0 | 0.0 | 0.0 | 0.00 | 0.03 | 0.00 | 88 | 1013.2 |
| 20260510053525 | 13 | 0 | 0.0 | 0.0 | 0.00 | 0.03 | 0.00 | 88 | 1013.1 |
| 20260510053038 | 13 | 0 | 0.0 | 0.0 | 0.00 | 0.03 | 0.00 | 88 | 1013.2 |
| 20260510052524 | 13 | 0 | 0.0 | 0.0 | 0.00 | 0.03 | 0.00 | 87 | 1013.3 |
| 20260510052028 | 13 | 0 | 0.0 | 0.0 | 0.00 | 0.03 | 0.00 | 87 | 1013.3 |
| 20260510051546 | 13 | 0 | 0.0 | 0.0 | 0.00 | 0.03 | 0.00 | 87 | 1013.3 |
| 20260510051028 | 13 | 0 | 0.0 | 0.0 | 0.00 | 0.03 | 0.00 | 86 | 1013.2 |
| 20260510050525 | 13 | 0 | 0.0 | 0.0 | 0.00 | 0.03 | 0.00 | 86 | 1013.2 |
| 20260510050041 | 13 | 0 | 0.0 | 0.0 | 0.00 | 0.03 | 0.00 | 86 | 1013.0 |
| 20260510045529 | 13 | 0 | 0.0 | 0.0 | 0.00 | 0.03 | 0.03 | 86 | 1013.0 |
| 20260510045025 | 13 | 0 | 0.0 | 0.0 | 0.00 | 0.03 | 0.03 | 87 | 1013.0 |
| 20260510044537 | 13 | 0 | 0.0 | 0.0 | 0.00 | 0.03 | 0.03 | 87 | 1012.9 |
| 20260510044028 | 13 | 0 | 0.0 | 0.0 | 0.00 | 0.03 | 0.03 | 87 | 1013.0 |
| 20260510043528 | 13 | 0 | 0.0 | 0.0 | 0.00 | 0.03 | 0.03 | 86 | 1013.1 |
| 20260510043039 | 12 | 0 | 0.0 | 0.0 | 0.00 | 0.03 | 0.03 | 86 | 1012.9 |
| 20260510042550 | 12 | 0 | 0.0 | 0.0 | 0.00 | 0.03 | 0.03 | 85 | 1013.0 |
| 20260510042027 | 12 | 0 | 0.0 | 0.0 | 0.00 | 0.03 | 0.03 | 85 | 1013.0 |
| 20260510041534 | 12 | 0 | 0.0 | 0.0 | 0.00 | 0.03 | 0.03 | 84 | 1012.9 |
| 20260510041027 | 13 | 0 | 0.0 | 0.0 | 0.00 | 0.03 | 0.03 | 84 | 1012.8 |
| 20260510040525 | 13 | 0 | 0.0 | 0.0 | 0.00 | 0.03 | 0.03 | 84 | 1012.7 |
| 20260510040047 | 13 | 0 | 0.0 | 0.0 | 0.00 | 0.03 | 0.03 | 82 | 1012.6 |
| 20260510035526 | 13 | 0 | 0.0 | 0.0 | 0.00 | 0.10 | 0.03 | 82 | 1012.7 |
| 20260510035026 | 13 | 0 | 0.0 | 0.0 | 0.00 | 0.10 | 0.03 | 81 | 1012.6 |
| 20260510034544 | 14 | 0 | 0.0 | 0.0 | 0.00 | 0.10 | 0.03 | 82 | 1012.5 |
| 20260510034026 | 14 | 0 | 0.0 | 0.0 | 0.00 | 0.10 | 0.03 | 82 | 1012.5 |
| 20260510033527 | 14 | 0 | 0.0 | 0.0 | 0.00 | 0.10 | 0.03 | 82 | 1012.5 |
| 20260510033035 | 14 | 0 | 0.0 | 0.0 | 0.00 | 0.10 | 0.03 | 82 | 1012.5 |
| 20260510032526 | 13 | 0 | 0.0 | 0.0 | 0.00 | 0.10 | 0.03 | 84 | 1012.5 |
| 20260510032026 | 13 | 0 | 0.0 | 0.0 | 0.00 | 0.10 | 0.03 | 82 | 1012.5 |
| 20260510031535 | 13 | 0 | 0.0 | 0.0 | 0.00 | 0.10 | 0.03 | 80 | 1012.4 |
| 20260510031031 | 13 | 0 | 0.0 | 0.0 | 0.00 | 0.10 | 0.03 | 79 | 1012.4 |
| 20260510030529 | 14 | 0 | 0.0 | 0.0 | 0.00 | 0.10 | 0.03 | 79 | 1012.3 |
| 20260510030037 | 14 | 0 | 0.0 | 0.0 | 0.00 | 0.10 | 0.03 | 79 | 1012.2 |
| 20260510025529 | 14 | 0 | 0.0 | 0.0 | 0.00 | 0.13 | 0.03 | 79 | 1012.2 |
| 20260510025028 | 14 | 0 | 0.0 | 0.0 | 0.00 | 0.13 | 0.03 | 79 | 1012.0 |
| 20260510024541 | 14 | 0 | 0.0 | 0.0 | 0.00 | 0.13 | 0.03 | 79 | 1011.9 |
| 20260510024025 | 15 | 0 | 0.0 | 0.0 | 0.00 | 0.13 | 0.03 | 79 | 1011.7 |
| 20260510023528 | 15 | 0 | 0.0 | 0.0 | 0.00 | 0.13 | 0.03 | 78 | 1011.5 |
| 20260510023036 | 15 | 0 | 0.0 | 0.0 | 0.00 | 0.13 | 0.03 | 77 | 1011.4 |
| 20260510022529 | 15 | 0 | 0.0 | 0.0 | 0.00 | 0.13 | 0.03 | 76 | 1011.5 |
| 20260510022027 | 15 | 0 | 0.0 | 0.0 | 0.00 | 0.13 | 0.03 | 76 | 1011.4 |
| 20260510021535 | 15 | 0 | 0.0 | 0.0 | 0.00 | 0.13 | 0.03 | 75 | 1011.4 |
| 20260510021027 | 16 | 0 | 0.0 | 0.0 | 0.00 | 0.13 | 0.03 | 75 | 1011.4 |
| 20260510020530 | 16 | 0 | 0.0 | 0.0 | 0.00 | 0.13 | 0.03 | 73 | 1011.1 |
| 20260510020047 | 16 | 0 | 0.0 | 0.0 | 0.00 | 0.13 | 0.03 | 73 | 1010.9 |
| 20260510015528 | 17 | 0 | 0.0 | 0.0 | 0.00 | 0.13 | 0.03 | 72 | 1010.8 |
| 20260510015027 | 17 | 0 | 0.0 | 0.0 | 0.00 | 0.13 | 0.03 | 71 | 1010.6 |
| 20260510014547 | 17 | 0 | 0.0 | 0.0 | 0.00 | 0.13 | 0.03 | 70 | 1010.6 |
| 20260510014028 | 18 | 0 | 0.0 | 0.0 | 0.00 | 0.13 | 0.03 | 69 | 1010.5 |
| 20260510013527 | 18 | 0 | 0.0 | 0.0 | 0.00 | 0.13 | 0.03 | 68 | 1010.4 |
| 20260510013038 | 18 | 0 | 0.0 | 0.0 | 0.00 | 0.13 | 0.03 | 67 | 1010.2 |
| 20260510012528 | 19 | 0 | 0.0 | 0.0 | 0.00 | 0.13 | 0.03 | 65 | 1010.4 |
| 20260510012031 | 20 | 0 | 0.0 | 0.0 | 0.00 | 0.13 | 0.03 | 65 | 1010.4 |
| 20260510011541 | 20 | 0 | 0.0 | 0.0 | 0.00 | 0.13 | 0.03 | 62 | 1010.4 |
| 20260510011028 | 21 | 0 | 0.0 | 0.0 | 0.00 | 0.13 | 0.03 | 61 | 1010.3 |
| 20260510010528 | 22 | 0 | 0.0 | 0.0 | 0.00 | 0.13 | 0.03 | 58 | 1010.3 |
| 20260510010036 | 23 | 0 | 0.0 | 0.0 | 0.00 | 0.13 | 0.03 | 54 | 1010.2 |
| 20260510005528 | 24 | 0 | 0.0 | 0.0 | 0.00 | 0.13 | 0.03 | 53 | 1010.1 |
| 20260510005028 | 25 | 0 | 0.0 | 0.0 | 0.00 | 0.13 | 0.03 | 49 | 1010.1 |
| 20260510004543 | 25 | 0 | 0.0 | 0.0 | 0.00 | 0.13 | 0.03 | 46 | 1010.1 |
| 20260510004028 | 26 | 0 | 0.0 | 0.0 | 0.00 | 0.13 | 0.03 | 44 | 1010.1 |
| 20260510003528 | 26 | 0 | 0.0 | 1.6 | 0.00 | 0.13 | 0.03 | 42 | 1010.1 |
| 20260510003039 | 26 | 0 | 0.0 | 4.8 | 0.00 | 0.13 | 0.03 | 41 | 1010.0 |
| 20260510002528 | 26 | 0 | 1.6 | 6.4 | 0.00 | 0.13 | 0.03 | 38 | 1009.9 |
| 20260510002027 | 26 | 215 | 3.2 | 6.4 | 0.00 | 0.13 | 0.03 | 37 | 1009.9 |
| 20260510001537 | 26 | 219 | 3.2 | 8.0 | 0.00 | 0.13 | 0.03 | 36 | 1009.9 |
| 20260510001030 | 26 | 224 | 3.2 | 11.3 | 0.00 | 0.13 | 0.03 | 36 | 1009.9 |
| 20260510000525 | 26 | 210 | 4.8 | 11.3 | 0.00 | 0.13 | 0.03 | 36 | 1009.9 |
| 20260510000100 | 26 | 219 | 6.4 | 11.3 | 0.00 | 0.13 | 0.03 | 36 | 1009.9 |
| 20260509235528 | 26 | 221 | 3.2 | 12.9 | 0.00 | 0.13 | 0.03 | 36 | 1009.9 |
| 20260509235027 | 26 | 209 | 6.4 | 12.9 | 0.00 | 0.13 | 0.03 | 36 | 1010.0 |
| 20260509234548 | 26 | 259 | 6.4 | 12.9 | 0.00 | 0.13 | 0.03 | 36 | 1009.9 |
| 20260509234028 | 26 | 234 | 4.8 | 12.9 | 0.00 | 0.13 | 0.03 | 35 | 1010.0 |
| 20260509233531 | 27 | 235 | 4.8 | 12.9 | 0.00 | 0.13 | 0.03 | 36 | 1010.0 |
| 20260509233045 | 27 | 205 | 6.4 | 12.9 | 0.00 | 0.13 | 0.03 | 35 | 1010.0 |
| 20260509232530 | 27 | 351 | 3.2 | 9.7 | 0.00 | 0.13 | 0.03 | 37 | 1010.0 |
| 20260509232028 | 27 | 170 | 3.2 | 9.7 | 0.00 | 0.13 | 0.03 | 34 | 1009.9 |
| 20260509231535 | 27 | 224 | 0.0 | 4.8 | 0.00 | 0.13 | 0.03 | 35 | 1010.0 |
| 20260509231027 | 27 | 240 | 0.0 | 6.4 | 0.00 | 0.13 | 0.03 | 36 | 1010.0 |
| 20260509230526 | 27 | 298 | 0.0 | 11.3 | 0.00 | 0.13 | 0.03 | 39 | 1009.9 |
| 20260509230044 | 27 | 271 | 3.2 | 12.9 | 0.00 | 0.13 | 0.03 | 34 | 1009.9 |
| 20260509225525 | 27 | 254 | 4.8 | 14.5 | 0.00 | 0.13 | 0.03 | 35 | 1009.9 |
| 20260509225028 | 27 | 288 | 8.0 | 14.5 | 0.00 | 0.13 | 0.03 | 35 | 1009.8 |
| 20260509224542 | 27 | 217 | 3.2 | 11.3 | 0.00 | 0.13 | 0.03 | 36 | 1009.8 |
| 20260509224028 | 27 | 200 | 3.2 | 9.7 | 0.00 | 0.13 | 0.03 | 35 | 1009.9 |
| 20260509223526 | 27 | 323 | 4.8 | 9.7 | 0.00 | 0.13 | 0.03 | 33 | 1009.9 |
| 20260509223036 | 27 | 292 | 4.8 | 11.3 | 0.00 | 0.13 | 0.03 | 34 | 1010.0 |
| 20260509222524 | 27 | 342 | 4.8 | 11.3 | 0.00 | 0.13 | 0.03 | 36 | 1009.9 |
| 20260509222025 | 27 | 293 | 6.4 | 12.9 | 0.00 | 0.13 | 0.03 | 35 | 1009.9 |
| 20260509221535 | 27 | 304 | 4.8 | 12.9 | 0.00 | 0.13 | 0.03 | 34 | 1010.0 |
| 20260509221026 | 27 | 321 | 8.0 | 12.9 | 0.00 | 0.13 | 0.03 | 33 | 1010.1 |
| 20260509220527 | 27 | 280 | 6.4 | 12.9 | 0.00 | 0.13 | 0.03 | 34 | 1010.0 |
| 20260509220036 | 27 | 206 | 1.6 | 9.7 | 0.00 | 0.13 | 0.03 | 37 | 1010.0 |
| 20260509215525 | 27 | 290 | 3.2 | 9.7 | 0.00 | 0.13 | 0.03 | 31 | 1010.0 |
| 20260509215031 | 27 | 224 | 3.2 | 9.7 | 0.00 | 0.13 | 0.03 | 33 | 1010.0 |
| 20260509214536 | 27 | 328 | 4.8 | 11.3 | 0.00 | 0.13 | 0.03 | 32 | 1010.0 |
| 20260509214028 | 27 | 249 | 4.8 | 12.9 | 0.00 | 0.13 | 0.03 | 31 | 1010.0 |
| 20260509213531 | 27 | 297 | 6.4 | 14.5 | 0.00 | 0.13 | 0.03 | 31 | 1010.0 |
| 20260509213040 | 27 | 292 | 8.0 | 14.5 | 0.00 | 0.13 | 0.03 | 31 | 1010.1 |
| 20260509212527 | 27 | 264 | 1.6 | 11.3 | 0.00 | 0.13 | 0.03 | 34 | 1010.0 |
| 20260509212025 | 27 | 250 | 1.6 | 11.3 | 0.00 | 0.13 | 0.03 | 32 | 1010.0 |
| 20260509211539 | 27 | 304 | 1.6 | 11.3 | 0.00 | 0.13 | 0.03 | 38 | 1010.0 |
| 20260509211025 | 27 | 301 | 8.0 | 11.3 | 0.00 | 0.13 | 0.03 | 33 | 1010.1 |
| 20260509210527 | 27 | 345 | 3.2 | 11.3 | 0.00 | 0.13 | 0.03 | 31 | 1010.1 |
| 20260509210042 | 27 | 304 | 4.8 | 11.3 | 0.00 | 0.13 | 0.03 | 31 | 1010.1 |
| 20260509205528 | 27 | 294 | 4.8 | 12.9 | 0.00 | 0.13 | 0.03 | 31 | 1010.2 |
| 20260509205025 | 27 | 348 | 3.2 | 17.7 | 0.00 | 0.13 | 0.03 | 35 | 1010.3 |
| 20260509204550 | 27 | 307 | 4.8 | 17.7 | 0.00 | 0.13 | 0.03 | 31 | 1010.3 |
| 20260509204028 | 27 | 221 | 3.2 | 12.9 | 0.00 | 0.13 | 0.03 | 32 | 1010.2 |
| 20260509203529 | 27 | 299 | 3.2 | 11.3 | 0.00 | 0.13 | 0.03 | 29 | 1010.4 |
| 20260509203039 | 26 | 0 | 3.2 | 14.5 | 0.00 | 0.13 | 0.03 | 34 | 1010.2 |
| 20260509202528 | 27 | 326 | 6.4 | 19.3 | 0.00 | 0.13 | 0.03 | 35 | 1010.5 |
| 20260509202028 | 26 | 282 | 9.7 | 19.3 | 0.00 | 0.13 | 0.03 | 31 | 1010.5 |
| 20260509201540 | 26 | 242 | 6.4 | 16.1 | 0.00 | 0.13 | 0.03 | 32 | 1010.6 |
| 20260509201028 | 26 | 304 | 9.7 | 16.1 | 0.00 | 0.13 | 0.03 | 31 | 1010.7 |
| 20260509200532 | 26 | 240 | 8.0 | 14.5 | 0.00 | 0.13 | 0.03 | 35 | 1010.8 |
| 20260509200041 | 26 | 297 | 6.4 | 16.1 | 0.00 | 0.13 | 0.03 | 34 | 1010.7 |
| 20260509195531 | 26 | 0 | 6.4 | 17.7 | 0.00 | 0.13 | 0.03 | 37 | 1010.8 |
| 20260509195024 | 26 | 239 | 6.4 | 20.9 | 0.00 | 0.13 | 0.03 | 33 | 1010.8 |
| 20260509194538 | 26 | 255 | 9.7 | 20.9 | 0.00 | 0.13 | 0.03 | 33 | 1011.0 |
| 20260509194028 | 27 | 266 | 11.3 | 20.9 | 0.00 | 0.13 | 0.03 | 34 | 1011.0 |
| 20260509193528 | 26 | 0 | 3.2 | 22.5 | 0.00 | 0.13 | 0.03 | 34 | 1010.9 |
| 20260509193043 | 26 | 214 | 4.8 | 22.5 | 0.00 | 0.13 | 0.03 | 35 | 1011.0 |
| 20260509192528 | 26 | 239 | 9.7 | 22.5 | 0.00 | 0.13 | 0.03 | 35 | 1010.9 |
| 20260509192030 | 26 | 317 | 0.0 | 11.3 | 0.00 | 0.13 | 0.03 | 37 | 1010.9 |
| 20260509191543 | 26 | 356 | 6.4 | 12.9 | 0.00 | 0.13 | 0.03 | 39 | 1010.9 |
| 20260509191027 | 26 | 326 | 4.8 | 12.9 | 0.00 | 0.13 | 0.03 | 43 | 1011.0 |
| 20260509190528 | 26 | 200 | 6.4 | 12.9 | 0.00 | 0.13 | 0.03 | 37 | 1011.0 |
| 20260509190039 | 26 | 248 | 6.4 | 16.1 | 0.00 | 0.13 | 0.03 | 37 | 1011.0 |
| 20260509185528 | 26 | 290 | 6.4 | 16.1 | 0.00 | 0.13 | 0.03 | 38 | 1011.1 |
| 20260509185029 | 26 | 344 | 4.8 | 19.3 | 0.00 | 0.13 | 0.03 | 36 | 1011.1 |
| 20260509184553 | 26 | 222 | 11.3 | 25.7 | 0.00 | 0.13 | 0.03 | 36 | 1011.1 |
| 20260509184028 | 26 | 270 | 6.4 | 25.7 | 0.00 | 0.13 | 0.03 | 38 | 1011.0 |
| 20260509183525 | 26 | 126 | 4.8 | 17.7 | 0.00 | 0.13 | 0.03 | 41 | 1011.0 |
| 20260509183035 | 26 | 229 | 8.0 | 19.3 | 0.00 | 0.13 | 0.03 | 36 | 1011.0 |
| 20260509182528 | 26 | 245 | 6.4 | 19.3 | 0.00 | 0.13 | 0.03 | 40 | 1011.1 |
| 20260509182028 | 26 | 259 | 4.8 | 12.9 | 0.00 | 0.13 | 0.03 | 37 | 1011.1 |
| 20260509181539 | 26 | 271 | 3.2 | 12.9 | 0.00 | 0.13 | 0.03 | 38 | 1011.1 |
| 20260509181029 | 26 | 288 | 3.2 | 12.9 | 0.00 | 0.13 | 0.03 | 38 | 1011.0 |
| 20260509180528 | 26 | 276 | 3.2 | 16.1 | 0.00 | 0.13 | 0.03 | 36 | 1011.0 |
| 20260509180043 | 26 | 242 | 6.4 | 16.1 | 0.00 | 0.13 | 0.03 | 40 | 1011.0 |
| 20260509175525 | 26 | 278 | 1.6 | 17.7 | 0.00 | 0.13 | 0.03 | 38 | 1011.1 |
| 20260509175027 | 25 | 326 | 4.8 | 17.7 | 0.00 | 0.13 | 0.03 | 37 | 1011.1 |
| 20260509174542 | 25 | 311 | 9.7 | 17.7 | 0.00 | 0.13 | 0.03 | 40 | 1011.1 |
| 20260509174027 | 25 | 44 | 4.8 | 14.5 | 0.00 | 0.13 | 0.03 | 43 | 1011.2 |
| 20260509173529 | 25 | 271 | 6.4 | 14.5 | 0.00 | 0.13 | 0.03 | 40 | 1011.2 |
| 20260509173038 | 25 | 302 | 8.0 | 12.9 | 0.00 | 0.13 | 0.03 | 40 | 1011.2 |
| 20260509172528 | 25 | 270 | 6.4 | 14.5 | 0.00 | 0.13 | 0.03 | 40 | 1011.2 |
| 20260509172028 | 25 | 306 | 4.8 | 19.3 | 0.00 | 0.13 | 0.03 | 43 | 1011.3 |
| 20260509171537 | 25 | 296 | 8.0 | 19.3 | 0.00 | 0.13 | 0.03 | 41 | 1011.4 |
| 20260509171024 | 25 | 328 | 3.2 | 14.5 | 0.00 | 0.13 | 0.03 | 45 | 1011.4 |
| 20260509170527 | 25 | 243 | 6.4 | 17.7 | 0.00 | 0.13 | 0.03 | 44 | 1011.4 |
| 20260509170038 | 25 | 308 | 6.4 | 17.7 | 0.00 | 0.13 | 0.03 | 43 | 1011.5 |
| 20260509165532 | 25 | 341 | 6.4 | 16.1 | 0.00 | 0.13 | 0.03 | 42 | 1011.5 |
| 20260509165028 | 24 | 316 | 6.4 | 16.1 | 0.00 | 0.13 | 0.03 | 41 | 1011.4 |
| 20260509164534 | 24 | 249 | 8.0 | 16.1 | 0.00 | 0.13 | 0.03 | 45 | 1011.4 |
| 20260509164026 | 24 | 290 | 6.4 | 16.1 | 0.00 | 0.13 | 0.03 | 46 | 1011.4 |
| 20260509163531 | 24 | 311 | 6.4 | 14.5 | 0.00 | 0.13 | 0.03 | 46 | 1011.4 |
| 20260509163040 | 24 | 235 | 3.2 | 14.5 | 0.00 | 0.13 | 0.03 | 51 | 1011.4 |
| 20260509162529 | 24 | 258 | 3.2 | 11.3 | 0.00 | 0.13 | 0.03 | 53 | 1011.3 |
| 20260509162027 | 23 | 271 | 1.6 | 12.9 | 0.00 | 0.13 | 0.03 | 53 | 1011.4 |
| 20260509161536 | 23 | 283 | 6.4 | 12.9 | 0.00 | 0.13 | 0.03 | 54 | 1011.5 |
| 20260509161029 | 23 | 285 | 6.4 | 9.7 | 0.00 | 0.13 | 0.03 | 55 | 1011.4 |
| 20260509160528 | 23 | 326 | 4.8 | 9.7 | 0.00 | 0.13 | 0.03 | 56 | 1011.4 |
| 20260509160040 | 23 | 0 | 0.0 | 6.4 | 0.00 | 0.13 | 0.03 | 63 | 1011.4 |
| 20260509155529 | 22 | 304 | 1.6 | 9.7 | 0.00 | 0.13 | 0.03 | 62 | 1011.4 |
| 20260509155028 | 22 | 309 | 1.6 | 9.7 | 0.00 | 0.13 | 0.03 | 63 | 1011.4 |
| 20260509154535 | 22 | 285 | 3.2 | 11.3 | 0.00 | 0.13 | 0.03 | 62 | 1011.3 |
| 20260509154032 | 22 | 0 | 1.6 | 11.3 | 0.00 | 0.13 | 0.03 | 62 | 1011.3 |
| 20260509153528 | 22 | 223 | 6.4 | 11.3 | 0.00 | 0.13 | 0.03 | 66 | 1011.3 |
| 20260509153046 | 22 | 230 | 1.6 | 9.7 | 0.00 | 0.13 | 0.03 | 66 | 1011.2 |
| 20260509152528 | 21 | 253 | 4.8 | 9.7 | 0.00 | 0.13 | 0.03 | 64 | 1011.3 |
| 20260509152036 | 21 | 322 | 1.6 | 8.0 | 0.00 | 0.13 | 0.03 | 68 | 1011.2 |
| 20260509151544 | 21 | 0 | 1.6 | 6.4 | 0.00 | 0.13 | 0.03 | 68 | 1011.4 |
| 20260509151028 | 21 | 274 | 1.6 | 6.4 | 0.00 | 0.13 | 0.03 | 69 | 1011.4 |
| 20260509150528 | 21 | 263 | 1.6 | 6.4 | 0.00 | 0.13 | 0.03 | 72 | 1011.2 |
| 20260509150040 | 20 | 0 | 1.6 | 6.4 | 0.00 | 0.13 | 0.03 | 73 | 1011.2 |
| 20260509145528 | 20 | 260 | 1.6 | 9.7 | 0.00 | 0.13 | 0.03 | 73 | 1011.2 |
| 20260509145029 | 20 | 283 | 3.2 | 9.7 | 0.00 | 0.13 | 0.03 | 73 | 1011.3 |
| 20260509144602 | 20 | 268 | 0.0 | 6.4 | 0.00 | 0.13 | 0.03 | 76 | 1011.2 |
| 20260509144031 | 20 | 289 | 1.6 | 8.0 | 0.00 | 0.13 | 0.03 | 78 | 1011.3 |
| 20260509143528 | 19 | 0 | 1.6 | 8.0 | 0.00 | 0.13 | 0.03 | 77 | 1011.3 |
| 20260509143049 | 19 | 319 | 3.2 | 8.0 | 0.00 | 0.13 | 0.03 | 77 | 1011.2 |